Leesburg, FL

12:41 PM EDT on September 29, 2016 (GMT -0400)
Leesburg Regional

Weather History for KLEE - January, 2014

Change the Weather History Date:

Tuesday, January 7, 2014

  Actual Average Record
Temperature  
Mean Temperature 39 °F -  
Max Temperature 46 °F 70 °F 82 °F (2007)
Min Temperature 32 °F 48 °F 32 °F (1980)
Degree Days  
Heating Degree Days 26    
Moisture  
Dew Point 15 °F    
Average Humidity 42    
Maximum Humidity 65    
Minimum Humidity 23    
Precipitation  
Precipitation 0.00 in - - ()
Sea Level Pressure  
Sea Level Pressure 30.42 in    
Wind  
Wind Speed 14 mph (NNE)    
Max Wind Speed 17 mph    
Max Gust Speed 25 mph    
Visibility 10 miles    
Events      
Averages and records for this station are not official NWS values.
T = Trace of Precipitation, MM = Missing Value Source: NWS Daily Summary

Daily Weather History Graph

Daily Weather History Graph

Search for Another Location

Airport or City:

Trip Planner

Search our weather history database for the weather conditions in past years. The results will help you decide how hot, cold, wet, or windy it might be!

Date:

Astronomy

Jan. 07, 2014 Rise Set
Actual Time 7:21 AM EST 5:45 PM EST
Civil Twilight 6:55 AM EST 6:11 PM EST
Nautical Twilight 6:26 AM EST 6:40 PM EST
Astronomical Twilight 5:57 AM EST 7:09 PM EST
Moon 11:44 AM EST (1/7) No Moon Set
Length of Visible Light 11h 15m
Length of Day
10h 24m
Waxing Crescent, 45% of the Moon is Illuminated
Jan 7
Waxing Crescent
Jan 7
First Quarter
Jan 15
Full
Jan 24
Last Quarter
Jan 30
New

Hourly Weather History & Observations

Time (EST) Temp. Windchill Dew Point Humidity Pressure Visibility Wind Dir Wind Speed Gust Speed Precip Events Conditions
12:53 AM 41.0 °F 33.5 °F 21.0 °F 45% 30.34 in 10.0 mi NNW 13.8 mph 21.9 mph N/A   Clear
1:53 AM 39.9 °F 31.4 °F 18.0 °F 41% 30.35 in 10.0 mi North 16.1 mph - N/A   Clear
2:53 AM 37.9 °F 28.9 °F 18.0 °F 45% 30.35 in 10.0 mi North 16.1 mph - N/A   Clear
3:53 AM 37.0 °F 27.4 °F 14.0 °F 39% 30.38 in 10.0 mi North 17.3 mph 24.2 mph N/A   Clear
4:53 AM 35.1 °F 25.5 °F 12.9 °F 40% 30.38 in 10.0 mi North 15.0 mph 25.3 mph N/A   Clear
5:53 AM 33.1 °F 22.6 °F 12.9 °F 43% 30.41 in 10.0 mi North 16.1 mph - N/A   Clear
6:53 AM 32.0 °F 20.8 °F 12.0 °F 44% 30.43 in 10.0 mi North 17.3 mph - N/A   Clear
7:53 AM 32.0 °F 22.1 °F 12.9 °F 45% 30.45 in 10.0 mi North 13.8 mph - N/A   Clear
8:53 AM 32.0 °F 21.6 °F 9.0 °F 38% 30.47 in 10.0 mi NNE 15.0 mph - N/A   Clear
9:53 AM 35.1 °F 25.9 °F 8.1 °F 33% 30.48 in 10.0 mi North 13.8 mph - N/A   Clear
10:53 AM 37.9 °F 29.6 °F 8.1 °F 29% 30.47 in 10.0 mi North 13.8 mph - N/A   Clear
11:53 AM 41.0 °F 32.5 °F 8.1 °F 26% 30.43 in 10.0 mi NNW 17.3 mph - N/A   Clear
12:53 PM 43.0 °F 37.7 °F 8.1 °F 24% 30.40 in 10.0 mi NNE 9.2 mph 17.3 mph N/A   Clear
1:53 PM 45.0 °F 39.7 °F 9.0 °F 23% 30.40 in 10.0 mi NNE 10.4 mph - N/A   Clear
2:53 PM 46.0 °F 41.0 °F 10.9 °F 24% 30.38 in 10.0 mi NE 10.4 mph - N/A   Clear
3:53 PM 43.0 °F 36.4 °F 12.0 °F 28% 30.40 in 10.0 mi NE 12.7 mph - N/A   Clear
4:53 PM 42.1 °F 36.6 °F 14.0 °F 32% 30.41 in 10.0 mi ENE 9.2 mph - N/A   Clear
5:53 PM 41.0 °F 34.7 °F 17.1 °F 38% 30.43 in 10.0 mi NNE 10.4 mph - N/A   Clear
6:53 PM 39.0 °F 31.0 °F 19.9 °F 46% 30.45 in 10.0 mi NE 13.8 mph - N/A   Clear
7:53 PM 37.0 °F 28.9 °F 25.0 °F 62% 30.47 in 10.0 mi NE 12.7 mph - N/A   Clear
8:53 PM 37.0 °F 28.9 °F 26.1 °F 65% 30.46 in 10.0 mi NNE 12.7 mph - N/A   Clear
9:53 PM 36.0 °F 29.0 °F 25.0 °F 64% 30.48 in 10.0 mi North 9.2 mph - N/A   Clear
10:53 PM 36.0 °F 28.5 °F 24.1 °F 62% 30.47 in 10.0 mi North 10.4 mph - N/A   Clear
11:53 PM 35.1 °F 26.9 °F 23.0 °F 61% 30.45 in 10.0 mi North 11.5 mph - N/A   Clear